Regional Weather Roundup
Issued by NWS

Home | Current Version | Previous Version | Graphics & Text | Print | Product List | Glossary On
Versions: 1 2 3 4 5 6 7 8 9 10 11 12 13 14 15 16 17 18 19 20 21 22 23 24 25 26 27 28 29 30 31 32 33 34 35 36 37 38 39 40 41 42 43 44 45 46 47 48 49 50
000
ASUS43 KTOP 291408
RWRKS

WEATHER ROUNDUP FOR KANSAS
NATIONAL WEATHER SERVICE GOODLAND KS
900 AM CDT FRI APR 29 2016

NOTE:  "FAIR" INDICATES FEW OR NO CLOUDS BELOW 12,000 FEET WITH NO
SIGNIFICANT WEATHER AND/OR OBSTRUCTIONS TO VISIBILITY.

KSZ001>006-013>018-027>032-041>047-291500-
NORTHWEST KANSAS

CITY           SKY/WX    TMP DP  RH WIND       PRES   REMARKS
GOODLAND       LGT RAIN  40  38  93 E13       29.97F WCI  32
HAYS           CLOUDY    43  36  75 NE20      30.00S
HILL CITY      LGT RAIN  43  40  89 E13       30.03R
RUSSELL        CLOUDY    44  41  89 NE15      29.98R
$$

KSZ061>065-074>080-084>089-291500-
SOUTHWEST KANSAS

CITY           SKY/WX    TMP DP  RH WIND       PRES   REMARKS
DODGE CITY     RAIN      43  41  93 NE17      29.93R FOG
ELKHART          N/A    N/A N/A N/A MISG        N/A
GARDEN CITY    RAIN      42  41  96 NE18G28   29.93R FOG
GREAT BEND     CLOUDY    45  37  76 E20       29.97R
LIBERAL        CLOUDY    46  41  81 NE17G29   29.86F
PRATT          LGT RAIN  42  40  95 NE21G28   29.95R
$$

KSZ066>073-081>083-090>101-291500-
SOUTHEAST KANSAS

CITY           SKY/WX    TMP DP  RH WIND       PRES   REMARKS
CHANUTE        CLOUDY    53  45  74 E13G24    29.95F
COFFEYVILLE    CLOUDY    54  48  80 E16G25    29.90F
HUTCHINSON     LGT RAIN  47  44  90 NE17      30.00F FOG
MEDICINE LODGE   N/A     48  46  93 NE24G33   29.88F
NEWTON         CLOUDY    46  39  76 NE15G21   30.03R
PARSONS        CLOUDY    54  48  80 E13G23    29.93F
WICHITA INTL   LGT RAIN  50  46  86 NE21G32   29.98F
WICHITA JABRA  LGT RAIN  47  32  56 NE15      30.00R
WICHITA MCCONL RAIN      48  46  92 NE22      29.97S FOG
WINFIELD       LGT RAIN  50  47  89 N13       29.96R FOG
$$

KSZ007>012-019>026-033>040-048>060-102>105-291500-
NORTHEAST KANSAS

CITY           SKY/WX    TMP DP  RH WIND       PRES   REMARKS
CONCORDIA      CLOUDY    45  40  82 E8        30.03F
EMPORIA        CLOUDY    49  43  80 NE18G29   29.99F
LAWRENCE       CLOUDY    49  43  80 NE9       30.07R
MANHATTAN      LGT RAIN  47  38  71 NE16      30.04S
MARYSVILLE     CLOUDY    45  39  81 NE10      30.06S
OLATHE IND     PTSUNNY   51  44  77 NE14      30.06R
OLATHE EXE     PTSUNNY   50  43  77 E10       30.05R
SALINA         RAIN      47  44  90 NE12      30.03R FOG
TOPEKA BILLARD CLOUDY    49  41  74 NE13G21   30.06R
TOPEKA FORBES  CLOUDY    49  41  74 NE14G21   30.04F
$$




USA.gov is the U.S. government's official web portal to all federal, state and local government web resources and services.